QPF
0.00 0.00 0.00 0.00 0.00 0.00 0.00 0.00 0.00 0.00 0.00 0.00 0.00 0.00 0.00 0.01 0.01 0.02 0.01 0.00 0.01 0.02 0.02 0.02 0.01 0.01 0.01 0.01 0.01 0.02 0.02 0.02 0.03 0.04 0.04 0.04 0.03 0.03 0.05 0.05 0.04 0.04 0.05 0.06
0.00 0.00 0.00 0.00 0.00 0.00 0.00 0.00 0.00 0.00 0.00 0.00 0.00 0.00 0.00 0.00 0.01 0.01 0.01 0.01 0.01 0.02 0.02 0.02 0.02 0.02 0.02 0.02 0.02 0.02 0.03 0.03 0.03 0.03 0.03 0.03 0.03 0.03 0.04 0.04 0.05 0.06 0.07 0.07
0.00 0.00 0.00 0.00 0.00 0.00 0.00 0.00 0.00 0.00 0.00 0.00 0.00 0.00 0.00 0.00 0.01 0.01 0.01 0.01 0.01 0.01 0.02 0.02 0.03 0.03 0.02 0.04 0.06 0.03 0.03 0.03 0.03 0.03 0.03 0.03 0.02 0.02 0.03 0.04 0.05 0.06 0.07 0.06
0.00 0.00 0.00 0.00 0.00 0.00 0.00 0.00 0.00 0.00 0.00 0.00 0.00 0.00 0.00 0.01 0.01 0.01 0.00 0.00 0.01 0.01 0.02 0.03 0.02 0.03 0.02 0.04 0.03 0.03 0.03 0.03 0.03 0.04 0.04 0.03 0.02 0.03 0.03 0.01 0.02 0.03 0.04 0.05
0.00 0.00 0.00 0.00 0.00 0.00 0.00 0.00 0.00 0.00 0.00 0.00 0.00 0.00 0.00 0.00 0.00 0.00 0.00 0.00 0.00 0.01 0.02 0.02 0.02 0.04 0.03 0.04 0.03 0.03 0.03 0.03 0.03 0.04 0.04 0.02 0.02 0.03 0.02 0.01 0.01 0.02 0.04 0.05
0.00 0.00 0.00 0.00 0.00 0.01 0.00 0.00 0.00 0.01 0.01 0.00 0.00 0.00 0.00 0.00 0.00 0.00 0.00 0.00 0.01 0.01 0.01 0.01 0.02 0.04 0.04 0.03 0.03 0.03 0.03 0.02 0.02 0.02 0.02 0.02 0.01 0.01 0.01 0.02 0.02 0.02 0.02 0.03
0.00 0.00 0.00 0.00 0.00 0.00 0.00 0.00 0.00 0.01 0.00 0.00 0.00 0.00 0.00 0.00 0.00 0.00 0.00 0.00 0.01 0.01 0.01 0.01 0.01 0.02 0.02 0.02 0.03 0.02 0.01 0.01 0.02 0.02 0.01 0.01 0.01 0.00 0.00 0.01 0.02 0.02 0.01 0.01
0.00 0.00 0.00 0.00 0.00 0.00 0.00 0.00 0.00 0.00 0.00 0.00 0.00 0.00 0.00 0.00 0.00 0.00 0.00 0.00 0.00 0.01 0.01 0.01 0.01 0.01 0.02 0.02 0.03 0.01 0.01 0.02 0.02 0.01 0.01 0.00 0.01 0.01 0.01 0.02 0.02 0.01 0.01 0.00
0.00 0.00 0.00 0.00 0.00 0.00 0.00 0.00 0.00 0.00 0.00 0.00 0.00 0.00 0.00 0.00 0.00 0.00 0.01 0.00 0.01 0.01 0.01 0.02 0.01 0.01 0.01 0.01 0.01 0.01 0.02 0.05 0.04 0.01 0.01 0.00 0.02 0.02 0.01 0.01 0.02 0.01 0.01 0.01
0.00 0.00 0.00 0.00 0.00 0.00 0.00 0.00 0.00 0.00 0.00 0.00 0.00 0.00 0.00 0.00 0.01 0.01 0.01 0.01 0.02 0.02 0.02 0.02 0.01 0.01 0.01 0.00 0.01 0.02 0.04 0.05 0.03 0.01 0.01 0.01 0.02 0.03 0.02 0.01 0.01 0.01 0.01 0.01
0.00 0.00 0.00 0.00 0.00 0.00 0.00 0.00 0.00 0.00 0.00 0.00 0.00 0.00 0.00 0.00 0.00 0.01 0.01 0.02 0.02 0.01 0.01 0.01 0.01 0.01 0.01 0.01 0.01 0.02 0.03 0.02 0.02 0.01 0.01 0.02 0.02 0.02 0.02 0.02 0.02 0.02 0.01 0.00
0.00 0.00 0.00 0.00 0.00 0.00 0.00 0.00 0.00 0.00 0.00 0.00 0.00 0.00 0.00 0.00 0.00 0.00 0.01 0.01 0.01 0.01 0.01 0.01 0.01 0.01 0.00 0.01 0.01 0.01 0.01 0.01 0.00 0.01 0.01 0.01 0.01 0.01 0.02 0.03 0.02 0.01 0.01 0.01
0.00 0.00 0.00 0.00 0.00 0.00 0.00 0.00 0.00 0.00 0.00 0.00 0.00 0.00 0.00 0.00 0.00 0.00 0.00 0.00 0.01 0.00 0.01 0.01 0.01 0.01 0.01 0.01 0.01 0.01 0.00 0.00 0.00 0.01 0.01 0.01 0.01 0.01 0.02 0.03 0.02 0.01 0.01 0.01
0.00 0.00 0.00 0.00 0.00 0.00 0.00 0.00 0.00 0.00 0.00 0.00 0.00 0.00 0.00 0.00 0.00 0.00 0.00 0.00 0.00 0.00 0.00 0.01 0.01 0.02 0.02 0.02 0.02 0.02 0.01 0.00 0.00 0.00 0.00 0.00 0.00 0.01 0.01 0.01 0.01 0.01 0.01 0.01
0.00 0.00 0.00 0.00 0.00 0.00 0.00 0.00 0.00 0.00 0.00 0.00 0.00 0.00 0.00 0.00 0.00 0.00 0.00 0.00 0.00 0.00 0.00 0.01 0.01 0.02 0.04 0.05 0.05 0.03 0.02 0.01 0.01 0.00 0.00 0.00 0.00 0.01 0.01 0.01 0.01 0.01 0.02 0.01
0.00 0.00 0.00 0.00 0.00 0.00 0.00 0.00 0.00 0.00 0.00 0.00 0.00 0.00 0.00 0.00 0.00 0.01 0.01 0.01 0.00 0.00 0.01 0.01 0.01 0.02 0.04 0.06 0.06 0.05 0.03 0.03 0.02 0.01 0.01 0.00 0.00 0.00 0.01 0.01 0.02 0.01 0.02 0.02
0.00 0.00 0.00 0.00 0.00 0.00 0.00 0.00 0.00 0.00 0.00 0.00 0.00 0.00 0.00 0.00 0.00 0.00 0.00 0.00 0.00 0.00 0.00 0.00 0.01 0.03 0.05 0.04 0.04 0.04 0.03 0.03 0.02 0.02 0.01 0.00 0.00 0.01 0.02 0.02 0.02 0.01 0.01 0.01
0.00 0.00 0.00 0.00 0.00 0.00 0.00 0.00 0.00 0.00 0.01 0.01 0.01 0.00 0.00 0.00 0.01 0.00 0.00 0.00 0.01 0.00 0.01 0.04 0.03 0.04 0.03 0.03 0.03 0.03 0.03 0.03 0.02 0.02 0.01 0.01 0.01 0.02 0.02 0.01 0.01 0.01 0.00 0.00
0.00 0.00 0.00 0.00 0.00 0.00 0.00 0.00 0.00 0.00 0.01 0.01 0.01 0.01 0.01 0.01 0.01 0.01 0.01 0.01 0.01 0.02 0.03 0.05 0.05 0.04 0.03 0.03 0.02 0.02 0.02 0.02 0.02 0.02 0.02 0.02 0.02 0.01 0.01 0.01 0.00 0.00 0.00 0.01
0.00 0.00 0.00 0.00 0.00 0.00 0.00 0.00 0.00 0.01 0.01 0.01 0.02 0.02 0.02 0.01 0.02 0.01 0.01 0.02 0.03 0.04 0.06 0.05 0.05 0.03 0.03 0.02 0.02 0.02 0.02 0.02 0.02 0.02 0.02 0.02 0.02 0.02 0.01 0.01 0.00 0.00 0.01 0.01
0.00 0.00 0.01 0.00 0.00 0.00 0.00 0.00 0.00 0.02 0.01 0.01 0.02 0.03 0.02 0.01 0.01 0.01 0.01 0.03 0.03 0.03 0.04 0.04 0.03 0.03 0.03 0.04 0.04 0.03 0.03 0.02 0.02 0.02 0.02 0.02 0.02 0.02 0.01 0.01 0.01 0.01 0.01 0.01
0.00 0.00 0.00 0.01 0.01 0.00 0.00 0.00 0.00 0.01 0.01 0.01 0.01 0.01 0.02 0.01 0.01 0.01 0.02 0.02 0.02 0.03 0.05 0.07 0.07 0.05 0.05 0.08 0.10 0.07 0.04 0.04 0.04 0.02 0.02 0.03 0.02 0.01 0.01 0.01 0.01 0.01 0.01 0.01
0.01 0.00 0.00 0.00 0.01 0.01 0.01 0.00 0.00 0.00 0.00 0.00 0.01 0.01 0.01 0.02 0.02 0.02 0.02 0.03 0.02 0.02 0.03 0.06 0.07 0.05 0.06 0.08 0.07 0.05 0.03 0.04 0.04 0.02 0.02 0.02 0.02 0.02 0.01 0.01 0.01 0.01 0.01 0.01
0.02 0.02 0.01 0.01 0.01 0.02 0.02 0.01 0.00 0.00 0.00 0.01 0.01 0.01 0.01 0.02 0.03 0.03 0.04 0.04 0.03 0.03 0.03 0.03 0.04 0.05 0.08 0.09 0.05 0.03 0.02 0.02 0.02 0.01 0.01 0.01 0.01 0.01 0.01 0.01 0.01 0.01 0.01 0.01
0.02 0.02 0.02 0.02 0.02 0.04 0.03 0.02 0.01 0.01 0.01 0.01 0.01 0.01 0.02 0.03 0.03 0.04 0.04 0.03 0.02 0.02 0.02 0.03 0.04 0.05 0.05 0.07 0.05 0.03 0.02 0.01 0.01 0.01 0.02 0.01 0.01 0.01 0.02 0.03 0.03 0.03 0.02 0.02
0.03 0.04 0.04 0.03 0.03 0.04 0.04 0.03 0.03 0.03 0.03 0.03 0.02 0.02 0.02 0.03 0.03 0.03 0.03 0.03 0.03 0.02 0.02 0.03 0.04 0.05 0.04 0.04 0.04 0.03 0.02 0.01 0.01 0.01 0.01 0.01 0.01 0.02 0.02 0.02 0.03 0.03 0.03 0.03
MSLP
1012.35 1013.27 1014.03 1014.60 1015.03 1015.35 1015.63 1015.91 1016.19 1016.48 1016.73 1016.92 1017.02 1017.01 1016.92 1016.79 1016.67 1016.60 1016.63 1016.76 1016.97 1017.21 1017.45 1017.62 1017.70 1017.68 1017.57 1017.42 1017.27 1017.17 1017.16 1017.23 1017.38 1017.56 1017.74 1017.88 1017.94 1017.92 1017.83 1017.69 1017.55 1017.42 1017.34 1017.31
1013.16 1013.86 1014.38 1014.75 1015.02 1015.27 1015.56 1015.92 1016.35 1016.80 1017.20 1017.49 1017.62 1017.58 1017.39 1017.10 1016.81 1016.59 1016.50 1016.56 1016.76 1017.05 1017.35 1017.60 1017.75 1017.78 1017.69 1017.54 1017.37 1017.25 1017.23 1017.31 1017.49 1017.72 1017.96 1018.14 1018.24 1018.23 1018.11 1017.94 1017.73 1017.55 1017.41 1017.35
1013.72 1014.18 1014.46 1014.63 1014.78 1015.01 1015.37 1015.89 1016.52 1017.17 1017.76 1018.17 1018.33 1018.24 1017.92 1017.46 1016.96 1016.55 1016.31 1016.27 1016.44 1016.74 1017.10 1017.44 1017.67 1017.76 1017.72 1017.59 1017.43 1017.31 1017.29 1017.39 1017.60 1017.88 1018.17 1018.40 1018.53 1018.53 1018.41 1018.20 1017.95 1017.72 1017.54 1017.44
1014.04 1014.26 1014.33 1014.35 1014.44 1014.71 1015.20 1015.92 1016.80 1017.70 1018.47 1019.00 1019.20 1019.03 1018.56 1017.89 1017.16 1016.53 1016.10 1015.93 1016.02 1016.32 1016.73 1017.15 1017.47 1017.64 1017.67 1017.58 1017.45 1017.35 1017.34 1017.45 1017.69 1018.00 1018.33 1018.60 1018.76 1018.78 1018.65 1018.42 1018.15 1017.87 1017.66 1017.54
1014.20 1014.21 1014.11 1014.05 1014.14 1014.50 1015.17 1016.13 1017.27 1018.40 1019.37 1020.00 1020.20 1019.95 1019.31 1018.40 1017.42 1016.54 1015.90 1015.58 1015.58 1015.86 1016.30 1016.78 1017.19 1017.46 1017.56 1017.53 1017.44 1017.35 1017.35 1017.48 1017.72 1018.05 1018.40 1018.70 1018.88 1018.91 1018.79 1018.55 1018.25 1017.96 1017.73 1017.58
1014.28 1014.13 1013.93 1013.84 1013.98 1014.48 1015.35 1016.55 1017.92 1019.27 1020.38 1021.09 1021.27 1020.92 1020.10 1018.96 1017.73 1016.60 1015.75 1015.27 1015.17 1015.41 1015.87 1016.40 1016.89 1017.24 1017.42 1017.46 1017.40 1017.34 1017.35 1017.46 1017.70 1018.02 1018.37 1018.66 1018.85 1018.89 1018.77 1018.54 1018.24 1017.94 1017.70 1017.55
1014.36 1014.11 1013.87 1013.79 1014.02 1014.67 1015.73 1017.12 1018.69 1020.19 1021.40 1022.13 1022.27 1021.80 1020.81 1019.47 1018.03 1016.69 1015.66 1015.03 1014.85 1015.04 1015.50 1016.08 1016.62 1017.04 1017.29 1017.38 1017.36 1017.31 1017.30 1017.40 1017.61 1017.90 1018.22 1018.50 1018.68 1018.72 1018.61 1018.38 1018.09 1017.80 1017.56 1017.42
1014.48 1014.19 1013.94 1013.92 1014.25 1015.02 1016.23 1017.76 1019.43 1021.01 1022.25 1022.96 1023.03 1022.45 1021.33 1019.84 1018.24 1016.77 1015.61 1014.89 1014.63 1014.79 1015.25 1015.84 1016.42 1016.89 1017.18 1017.30 1017.30 1017.25 1017.22 1017.28 1017.44 1017.69 1017.97 1018.22 1018.38 1018.42 1018.32 1018.11 1017.84 1017.58 1017.36 1017.23
1014.62 1014.33 1014.13 1014.18 1014.60 1015.46 1016.73 1018.32 1020.01 1021.57 1022.76 1023.40 1023.39 1022.74 1021.53 1019.97 1018.31 1016.78 1015.57 1014.81 1014.53 1014.67 1015.12 1015.71 1016.31 1016.79 1017.09 1017.22 1017.22 1017.15 1017.09 1017.11 1017.22 1017.41 1017.64 1017.86 1018.01 1018.04 1017.96 1017.79 1017.55 1017.32 1017.14 1017.04
1014.73 1014.48 1014.36 1014.48 1014.97 1015.86 1017.14 1018.67 1020.28 1021.73 1022.81 1023.35 1023.26 1022.56 1021.34 1019.80 1018.18 1016.69 1015.53 1014.80 1014.53 1014.67 1015.10 1015.68 1016.25 1016.72 1017.01 1017.12 1017.10 1017.00 1016.91 1016.88 1016.94 1017.09 1017.28 1017.47 1017.61 1017.65 1017.60 1017.47 1017.28 1017.10 1016.96 1016.89
1014.75 1014.59 1014.55 1014.75 1015.27 1016.15 1017.34 1018.74 1020.17 1021.44 1022.35 1022.76 1022.60 1021.89 1020.74 1019.31 1017.83 1016.49 1015.46 1014.82 1014.61 1014.77 1015.18 1015.72 1016.24 1016.65 1016.90 1016.98 1016.92 1016.80 1016.68 1016.63 1016.65 1016.76 1016.93 1017.10 1017.24 1017.31 1017.30 1017.22 1017.09 1016.96 1016.86 1016.84
1014.66 1014.61 1014.68 1014.95 1015.48 1016.28 1017.33 1018.52 1019.71 1020.74 1021.44 1021.71 1021.50 1020.84 1019.81 1018.57 1017.31 1016.19 1015.36 1014.87 1014.74 1014.92 1015.31 1015.79 1016.24 1016.57 1016.76 1016.79 1016.70 1016.56 1016.43 1016.36 1016.38 1016.47 1016.63 1016.81 1016.96 1017.06 1017.09 1017.06 1016.99 1016.92 1016.87 1016.87
1014.46 1014.56 1014.74 1015.07 1015.58 1016.28 1017.14 1018.08 1018.99 1019.74 1020.22 1020.35 1020.10 1019.51 1018.66 1017.66 1016.68 1015.84 1015.24 1014.92 1014.90 1015.10 1015.46 1015.87 1016.22 1016.47 1016.59 1016.57 1016.47 1016.32 1016.20 1016.14 1016.16 1016.27 1016.43 1016.62 1016.79 1016.92 1016.98 1017.00 1016.98 1016.95 1016.93 1016.96
1014.21 1014.47 1014.77 1015.15 1015.63 1016.21 1016.85 1017.51 1018.11 1018.58 1018.83 1018.83 1018.57 1018.07 1017.42 1016.69 1016.01 1015.47 1015.11 1014.98 1015.06 1015.29 1015.61 1015.94 1016.21 1016.37 1016.42 1016.37 1016.26 1016.13 1016.04 1016.01 1016.06 1016.19 1016.37 1016.56 1016.74 1016.88 1016.96 1017.00 1017.01 1017.00 1017.01 1017.04
1014.02 1014.42 1014.83 1015.25 1015.68 1016.11 1016.53 1016.91 1017.21 1017.39 1017.43 1017.31 1017.04 1016.65 1016.20 1015.75 1015.37 1015.11 1015.00 1015.05 1015.22 1015.48 1015.76 1016.02 1016.20 1016.29 1016.30 1016.23 1016.14 1016.05 1016.01 1016.03 1016.12 1016.27 1016.45 1016.64 1016.80 1016.93 1017.00 1017.04 1017.05 1017.04 1017.05 1017.07
1013.96 1014.48 1014.96 1015.39 1015.75 1016.03 1016.23 1016.34 1016.36 1016.28 1016.13 1015.90 1015.63 1015.35 1015.09 1014.90 1014.80 1014.80 1014.91 1015.11 1015.37 1015.65 1015.91 1016.11 1016.24 1016.29 1016.28 1016.23 1016.18 1016.15 1016.17 1016.25 1016.38 1016.54 1016.70 1016.86 1016.98 1017.05 1017.08 1017.08 1017.05 1017.02 1017.00 1017.00
1014.08 1014.67 1015.18 1015.59 1015.86 1015.98 1015.96 1015.83 1015.59 1015.29 1014.97 1014.67 1014.41 1014.22 1014.14 1014.17 1014.31 1014.54 1014.84 1015.19 1015.53 1015.84 1016.09 1016.26 1016.37 1016.41 1016.41 1016.40 1016.41 1016.46 1016.55 1016.68 1016.83 1016.98 1017.12 1017.21 1017.25 1017.24 1017.19 1017.11 1017.03 1016.95 1016.89 1016.85
1014.37 1014.97 1015.47 1015.81 1015.96 1015.92 1015.71 1015.35 1014.90 1014.43 1013.98 1013.62 1013.38 1013.30 1013.36 1013.58 1013.93 1014.35 1014.82 1015.29 1015.71 1016.06 1016.32 1016.50 1016.61 1016.68 1016.73 1016.78 1016.87 1016.99 1017.14 1017.31 1017.47 1017.59 1017.67 1017.67 1017.61 1017.49 1017.34 1017.17 1017.00 1016.86 1016.75 1016.67
1014.78 1015.32 1015.74 1015.98 1016.00 1015.81 1015.42 1014.89 1014.28 1013.68 1013.16 1012.78 1012.58 1012.58 1012.78 1013.17 1013.68 1014.26 1014.87 1015.44 1015.94 1016.35 1016.65 1016.86 1017.00 1017.12 1017.23 1017.36 1017.52 1017.71 1017.91 1018.10 1018.24 1018.32 1018.31 1018.22 1018.04 1017.81 1017.54 1017.27 1017.02 1016.81 1016.65 1016.54
1015.20 1015.64 1015.94 1016.05 1015.93 1015.60 1015.08 1014.43 1013.72 1013.06 1012.51 1012.15 1012.00 1012.10 1012.43 1012.95 1013.60 1014.32 1015.04 1015.71 1016.28 1016.75 1017.10 1017.35 1017.55 1017.72 1017.89 1018.09 1018.31 1018.54 1018.77 1018.95 1019.07 1019.09 1019.00 1018.81 1018.52 1018.18 1017.81 1017.45 1017.14 1016.88 1016.68 1016.54
1015.54 1015.84 1016.00 1015.98 1015.74 1015.30 1014.70 1013.99 1013.25 1012.59 1012.07 1011.76 1011.70 1011.90 1012.34 1012.98 1013.75 1014.58 1015.39 1016.14 1016.78 1017.30 1017.70 1018.00 1018.25 1018.47 1018.68 1018.92 1019.17 1019.42 1019.64 1019.80 1019.87 1019.83 1019.66 1019.38 1019.02 1018.59 1018.15 1017.74 1017.38 1017.09 1016.88 1016.73
1015.74 1015.90 1015.93 1015.79 1015.46 1014.97 1014.34 1013.63 1012.93 1012.33 1011.89 1011.68 1011.72 1012.03 1012.58 1013.32 1014.18 1015.09 1015.97 1016.78 1017.47 1018.03 1018.47 1018.80 1019.07 1019.31 1019.54 1019.78 1020.02 1020.25 1020.44 1020.55 1020.57 1020.47 1020.25 1019.91 1019.50 1019.03 1018.56 1018.13 1017.76 1017.47 1017.26 1017.10
1015.77 1015.81 1015.74 1015.53 1015.16 1014.67 1014.07 1013.43 1012.83 1012.34 1012.03 1011.94 1012.10 1012.52 1013.17 1013.99 1014.92 1015.88 1016.80 1017.64 1018.36 1018.94 1019.39 1019.73 1019.99 1020.22 1020.42 1020.62 1020.81 1020.98 1021.11 1021.16 1021.12 1020.97 1020.71 1020.35 1019.93 1019.47 1019.01 1018.60 1018.25 1017.98 1017.77 1017.62
1015.69 1015.64 1015.51 1015.27 1014.92 1014.48 1013.97 1013.46 1013.00 1012.66 1012.49 1012.55 1012.83 1013.35 1014.08 1014.96 1015.93 1016.91 1017.86 1018.70 1019.42 1019.99 1020.43 1020.74 1020.97 1021.14 1021.28 1021.39 1021.50 1021.58 1021.62 1021.60 1021.50 1021.31 1021.04 1020.69 1020.29 1019.87 1019.46 1019.10 1018.79 1018.54 1018.35 1018.20
1015.53 1015.45 1015.31 1015.10 1014.81 1014.46 1014.09 1013.73 1013.44 1013.27 1013.26 1013.45 1013.86 1014.46 1015.24 1016.16 1017.14 1018.12 1019.06 1019.89 1020.58 1021.12 1021.52 1021.78 1021.95 1022.04 1022.08 1022.09 1022.08 1022.05 1022.00 1021.90 1021.74 1021.53 1021.26 1020.94 1020.59 1020.23 1019.89 1019.58 1019.31 1019.10 1018.92 1018.76
1015.39 1015.31 1015.20 1015.04 1014.85 1014.63 1014.41 1014.22 1014.11 1014.10 1014.24 1014.56 1015.05 1015.71 1016.53 1017.45 1018.42 1019.38 1020.28 1021.08 1021.74 1022.24 1022.59 1022.79 1022.88 1022.87 1022.81 1022.70 1022.58 1022.44 1022.28 1022.10 1021.90 1021.67 1021.42 1021.14 1020.85 1020.56 1020.28 1020.02 1019.79 1019.58 1019.39 1019.20
Thickness
5817 5804 5795 5801 5806 5807 5801 5792 5789 5796 5810 5802 5793 5792 5797 5802 5800 5797 5794 5793 5790 5790 5793 5791 5789 5787 5783 5779 5776 5774 5770 5768 5764 5760 5757 5755 5753 5752 5751 5751 5750 5749 5748 5748
5796 5794 5809 5814 5812 5807 5800 5791 5790 5796 5808 5801 5791 5791 5799 5802 5802 5803 5799 5796 5793 5791 5791 5790 5789 5787 5784 5781 5778 5775 5772 5769 5767 5764 5761 5758 5756 5753 5752 5751 5750 5749 5748 5748
5791 5801 5814 5811 5805 5801 5798 5793 5792 5791 5797 5798 5792 5785 5792 5801 5805 5805 5805 5803 5799 5796 5793 5792 5790 5788 5786 5784 5782 5779 5775 5772 5769 5766 5763 5759 5756 5754 5751 5750 5750 5750 5749 5748
5793 5805 5808 5804 5802 5802 5790 5805 5802 5796 5782 5770 5782 5759 5783 5792 5796 5801 5804 5804 5803 5802 5800 5796 5794 5790 5789 5788 5786 5782 5777 5774 5771 5768 5764 5759 5755 5751 5750 5750 5750 5750 5749 5748
5787 5800 5801 5798 5804 5807 5800 5807 5799 5791 5777 5766 5771 5761 5772 5789 5789 5799 5807 5809 5809 5808 5805 5802 5799 5797 5794 5792 5788 5784 5779 5776 5773 5770 5766 5762 5757 5755 5753 5751 5750 5749 5749 5749
5790 5803 5806 5806 5812 5812 5804 5792 5781 5769 5762 5749 5763 5758 5766 5782 5796 5805 5812 5813 5813 5812 5810 5807 5804 5800 5796 5794 5790 5786 5781 5777 5775 5771 5768 5764 5759 5756 5753 5751 5749 5749 5748 5748
5776 5790 5804 5810 5798 5799 5794 5768 5742 5740 5731 5739 5760 5760 5770 5802 5811 5814 5816 5817 5818 5816 5812 5808 5804 5801 5798 5795 5792 5788 5783 5778 5775 5772 5769 5765 5762 5758 5755 5752 5750 5748 5747 5746
5753 5757 5788 5800 5796 5786 5783 5772 5743 5730 5728 5737 5755 5756 5786 5813 5819 5823 5823 5822 5821 5817 5815 5812 5808 5805 5802 5798 5794 5790 5785 5780 5776 5773 5770 5767 5763 5760 5757 5754 5752 5750 5748 5747
5745 5753 5787 5798 5804 5795 5775 5767 5769 5744 5737 5734 5745 5765 5793 5815 5816 5818 5819 5819 5819 5818 5817 5814 5811 5808 5805 5801 5797 5793 5787 5782 5778 5774 5771 5767 5764 5761 5758 5755 5753 5751 5749 5748
5757 5753 5775 5788 5795 5789 5786 5769 5751 5738 5724 5726 5744 5757 5772 5799 5808 5813 5814 5815 5818 5819 5817 5816 5813 5810 5807 5804 5799 5794 5790 5785 5780 5775 5772 5768 5764 5761 5758 5755 5752 5750 5748 5747
5760 5750 5758 5771 5773 5770 5769 5761 5748 5736 5738 5725 5729 5753 5797 5803 5810 5812 5814 5817 5818 5819 5818 5815 5814 5812 5808 5804 5799 5794 5790 5785 5780 5776 5772 5767 5764 5761 5758 5754 5752 5749 5747 5745
5751 5738 5735 5754 5774 5782 5778 5765 5753 5742 5732 5731 5734 5757 5811 5811 5814 5814 5815 5818 5819 5819 5818 5815 5813 5810 5806 5802 5798 5794 5790 5785 5781 5776 5771 5767 5763 5759 5756 5753 5750 5748 5745 5743
5746 5731 5721 5731 5746 5764 5765 5762 5758 5747 5731 5724 5731 5761 5806 5809 5810 5813 5814 5816 5817 5817 5815 5812 5809 5807 5805 5801 5798 5794 5790 5785 5781 5776 5770 5765 5761 5758 5754 5751 5748 5745 5742 5740
5750 5728 5724 5722 5733 5750 5754 5756 5754 5749 5732 5729 5742 5766 5791 5799 5803 5809 5812 5814 5814 5813 5811 5809 5806 5805 5803 5800 5796 5793 5788 5785 5780 5774 5769 5764 5760 5757 5753 5749 5746 5743 5740 5737
5740 5725 5731 5738 5749 5753 5757 5757 5755 5755 5750 5746 5757 5765 5787 5797 5803 5808 5811 5810 5810 5808 5807 5807 5805 5802 5800 5797 5794 5791 5787 5783 5778 5773 5767 5762 5759 5755 5751 5747 5743 5740 5737 5734
5724 5721 5726 5732 5742 5748 5750 5756 5756 5759 5758 5759 5765 5770 5792 5798 5802 5803 5806 5806 5805 5806 5807 5806 5804 5800 5798 5795 5792 5789 5784 5781 5776 5770 5765 5760 5756 5752 5748 5744 5741 5737 5733 5730
5709 5712 5709 5710 5729 5737 5732 5751 5755 5758 5763 5763 5761 5776 5789 5791 5796 5800 5803 5805 5805 5806 5805 5803 5801 5799 5797 5795 5792 5787 5782 5778 5772 5767 5762 5758 5753 5749 5745 5742 5737 5733 5729 5726
5704 5699 5694 5698 5713 5705 5733 5759 5762 5760 5764 5769 5774 5780 5786 5792 5797 5802 5804 5804 5803 5804 5802 5801 5799 5796 5794 5792 5789 5784 5779 5774 5769 5764 5759 5755 5751 5746 5742 5738 5733 5729 5725 5721
5704 5698 5687 5684 5691 5707 5734 5752 5754 5751 5754 5768 5770 5776 5781 5787 5789 5791 5800 5803 5803 5802 5800 5798 5797 5794 5790 5787 5784 5780 5774 5769 5765 5760 5757 5753 5749 5743 5738 5734 5729 5725 5721 5717
5694 5696 5687 5681 5687 5691 5724 5749 5759 5754 5743 5765 5768 5769 5773 5777 5768 5781 5796 5798 5797 5797 5795 5793 5792 5790 5786 5782 5779 5773 5768 5764 5761 5758 5754 5750 5745 5741 5735 5731 5726 5721 5717 5713
5678 5678 5678 5678 5684 5698 5727 5742 5750 5728 5736 5760 5764 5766 5767 5768 5774 5784 5791 5791 5791 5791 5790 5790 5786 5782 5780 5778 5773 5767 5762 5760 5758 5754 5750 5745 5741 5736 5732 5727 5722 5717 5712 5707
5669 5668 5668 5670 5676 5690 5725 5732 5728 5731 5746 5753 5758 5762 5763 5767 5773 5778 5782 5783 5782 5781 5781 5781 5779 5775 5773 5771 5768 5763 5758 5756 5753 5749 5744 5739 5735 5731 5727 5722 5717 5712 5707 5702
5665 5671 5672 5677 5685 5703 5715 5720 5728 5734 5738 5745 5750 5756 5759 5761 5765 5769 5771 5773 5774 5773 5772 5772 5770 5766 5765 5763 5761 5757 5754 5750 5747 5742 5737 5732 5729 5725 5721 5717 5711 5706 5701 5696
5663 5669 5670 5675 5688 5699 5708 5716 5723 5730 5735 5742 5747 5751 5754 5755 5758 5760 5762 5763 5764 5764 5764 5763 5760 5757 5755 5754 5752 5751 5748 5744 5740 5735 5730 5726 5721 5717 5713 5709 5705 5700 5695 5690
5655 5660 5663 5668 5682 5692 5702 5708 5715 5723 5730 5734 5739 5742 5745 5747 5748 5750 5751 5753 5754 5755 5755 5754 5752 5750 5748 5748 5745 5744 5741 5738 5733 5728 5723 5719 5714 5710 5705 5702 5698 5695 5692 5688
5649 5654 5658 5664 5676 5679 5688 5700 5708 5713 5718 5723 5727 5731 5735 5738 5737 5739 5741 5743 5744 5745 5745 5744 5743 5742 5741 5739 5738 5735 5734 5730 5726 5721 5716 5712 5707 5703 5699 5695 5690 5687 5684 5681